STARLINK-37972, 69708

Orbit data source: Space-Track

STARLINK-37972, 69708 is a payload satellite owned by SpaceX/Seattle (US) in SSO that was launched on Sun, 28 Jun 2026 UTC via an FALCON 9 launch vehicle from the Air Force Western Test Range (AFWTR). Payload-class satellites include a variety of spacecraft equipped with specific instruments for various scientific and technological missions. These include communications satellites like Starlink; space stations such as the ISS; scientific satellites like the Hubble; Earth observation satellites from companies like Planet Labs, Umbra, and HawkEye 360; GPS; miniature CubeSats for education and research; and military/defense satellites.

Not visible in the next 10 days
Identifier
69708, 2026-147E
Orbit
SSO
Country
Flag of USUS
Related business
Manufacturer
SpaceX/Seattle
Mission
Operational spacecraft
Bus & Motor
STARLINK V2MO, Unknown motor
Mass
575 kg wet, ~530 kg dry
Launch date (UTC)
2026-06-28 (2 weeks ago)
Launch vehicle
FALCON 9
Launch site
Air Force Western Test Range (AFWTR)
Object type
Payload
Rocket body
Debris
Shape & HBR
Unknown shape, 17.7 m
Radar Cross Section
Large (>1 m²)

Expand to show TLE details & history
Last TLE update: 8 hours ago

TLE from 8 hours ago
0 STARLINK-37972
1 69708U 26147E   26193.06438742  .00091862  00000-0  47504-3 0  9994
2 69708  97.2841 229.2771 0000495  86.3056 273.8269 15.80827911  3360
Epoch: 2026-07-12T01:32Z
TLE epoch observation values (Epoch: 2026-07-12T01:32:43.073Z)
Latitude
0.00002°
Longitude
-83.87099°
Altitude
331.252 km
Speed
7.71 km/s
True Right ascension
15h 17m 06s
True Declination
0° 00' 00"
Sunlit
Object was in full shadow at epoch
Visualization orbit readout
Latitude
Unknown
Longitude
Unknown
Altitude
Unknown
Speed
Unknown
Apparent Right ascension
Unknown
Apparent Declination
Unknown
Sunlit
N/A
Visualization observer readout
Local Sidereal Time
21:38:05
Azimuth
Unknown
Elevation
Unknown
Doppler factor
Unknown
Orbital elements
Apogee altitude
325.31 km
Perigee altitude
324.646 km
Semi-major axis
6,703.115 km
Eccentricity
0.00005
Inclination
97.2841°
RAAN
229.2771°
Arg. of periapsis
86.3056°
True anomaly
273.82124°
Mean anomaly
273.8269°
Eccentric anomaly
273.82407°
Mean motion
3.95483 °/min
Orbital period
91.03 mins
BSTAR
0.00047504
Loading maneuver chart data...
Computing Atmospheric mass density...
Loading historical data...
Loading historical data...
Loading historical data...
Loading historical data...
Loading historical data...
Loading historical data...
Loading historical data...

Documentation

Showing up to 5 results
|